Total_Precipitation_Accumulation
1.80 1.82 1.47 0.93 0.72 0.65 0.66 0.65 0.57 0.58 0.55 0.62 0.63 0.60 0.56 0.56 0.64 0.69 0.69 0.74 0.87 1.05 1.26 1.43 1.76 2.04 2.29 2.61 2.97 3.26 3.42 3.58 3.78 3.97 4.12 4.09 4.07 3.97 3.78 3.57 3.46 3.38 3.04 3.00
1.77 1.39 0.79 0.59 0.64 0.71 0.77 0.79 0.61 0.59 0.58 0.70 0.73 0.68 0.60 0.63 0.72 0.71 0.70 0.71 0.76 0.91 1.13 1.34 1.61 1.85 2.10 2.39 2.61 3.07 3.33 3.39 3.44 3.47 3.70 3.93 4.19 4.24 4.16 3.99 3.78 3.71 3.48 3.23
1.37 0.90 0.66 0.72 0.84 0.91 0.83 0.75 0.65 0.68 0.71 0.79 0.84 0.88 0.73 0.74 0.66 0.67 0.72 0.76 0.79 0.82 0.98 1.19 1.49 1.71 1.92 2.20 2.40 2.67 3.01 3.24 3.34 3.44 3.78 4.04 4.27 4.23 4.11 3.97 3.79 3.70 3.66 3.46
1.19 0.75 0.78 0.90 0.90 0.90 0.88 0.54 0.59 0.75 1.00 1.13 0.98 1.18 0.92 0.78 0.64 0.63 0.70 0.76 0.82 0.85 0.97 1.10 1.27 1.54 1.79 1.96 2.19 2.45 2.74 3.07 3.33 3.49 3.63 3.70 3.73 3.73 3.63 3.64 3.74 3.69 3.53 3.49
1.26 0.84 0.90 1.00 0.79 0.79 0.76 0.50 0.60 0.83 1.10 1.20 0.87 0.99 0.90 0.63 0.63 0.64 0.67 0.70 0.75 0.84 0.91 0.97 1.08 1.32 1.56 1.77 2.00 2.29 2.53 2.80 3.16 3.44 3.43 3.52 3.48 3.38 3.49 3.51 3.53 3.62 3.53 3.43
0.94 0.81 0.99 0.95 0.67 0.74 0.79 0.85 0.98 1.12 1.61 1.71 0.76 0.79 0.89 0.76 0.80 0.72 0.66 0.68 0.70 0.78 0.86 0.92 0.99 1.17 1.39 1.62 1.79 2.09 2.39 2.57 2.83 3.23 3.28 3.21 3.10 3.01 3.20 3.35 3.37 3.47 3.42 3.27
1.38 1.11 0.96 0.91 0.97 1.03 1.15 1.66 2.27 2.32 2.26 1.38 0.52 0.60 0.88 0.74 0.73 0.80 0.72 0.65 0.64 0.68 0.77 0.81 0.83 0.99 1.26 1.50 1.67 1.86 2.18 2.38 2.54 2.84 3.06 3.10 3.01 2.90 2.88 3.01 3.20 3.33 3.34 3.02
1.50 1.38 0.97 1.00 1.17 1.33 1.23 1.49 1.83 1.67 1.15 0.69 0.50 0.68 0.80 0.61 0.57 0.59 0.59 0.56 0.56 0.62 0.69 0.75 0.80 0.89 1.09 1.34 1.55 1.69 1.89 2.15 2.30 2.47 2.70 2.94 2.89 2.82 2.73 2.69 2.89 3.07 3.17 3.00
1.22 1.14 0.70 0.74 0.78 0.92 1.21 1.26 1.11 1.51 1.06 0.75 0.69 0.71 0.63 0.42 0.43 0.47 0.50 0.49 0.54 0.61 0.66 0.75 0.79 0.87 0.97 1.15 1.38 1.55 1.67 1.91 2.06 2.21 2.44 2.68 2.67 2.56 2.48 2.43 2.51 2.68 2.82 2.82
1.20 1.26 0.74 0.71 0.94 0.99 1.05 1.08 1.37 2.09 1.78 1.08 0.69 0.61 0.71 0.54 0.52 0.51 0.53 0.57 0.60 0.62 0.61 0.67 0.78 0.86 0.94 1.07 1.22 1.42 1.60 1.80 1.93 2.03 2.22 2.37 2.41 2.36 2.27 2.23 2.24 2.30 2.38 2.43
1.06 1.44 1.04 0.95 1.21 1.03 1.03 1.26 1.54 1.71 1.51 1.35 0.90 0.79 0.75 0.64 0.61 0.60 0.60 0.63 0.64 0.63 0.65 0.68 0.74 0.85 0.95 1.08 1.21 1.36 1.52 1.69 1.83 1.92 1.97 2.04 2.12 2.17 2.11 2.10 2.02 2.00 2.08 2.17
0.97 1.52 1.21 0.80 0.70 0.62 0.84 1.03 1.31 1.86 1.44 1.08 0.99 0.87 0.58 0.52 0.56 0.59 0.60 0.64 0.62 0.59 0.62 0.68 0.73 0.84 0.96 1.07 1.21 1.38 1.46 1.63 1.73 1.77 1.83 1.84 1.90 1.98 1.98 1.85 1.80 1.78 1.79 1.91
1.32 1.92 1.70 1.15 1.03 0.94 0.98 0.86 0.99 1.49 1.82 1.40 1.20 0.90 0.52 0.41 0.46 0.52 0.58 0.63 0.60 0.58 0.58 0.60 0.68 0.79 0.93 1.04 1.15 1.28 1.35 1.48 1.64 1.66 1.74 1.76 1.80 1.90 1.96 1.84 1.70 1.66 1.63 1.65
1.78 2.00 1.57 1.32 1.09 1.06 1.02 0.77 0.86 1.70 2.20 1.31 0.83 0.71 0.56 0.51 0.53 0.57 0.62 0.67 0.65 0.61 0.60 0.61 0.68 0.76 0.84 0.96 1.07 1.16 1.21 1.30 1.41 1.51 1.61 1.69 1.70 1.77 1.90 1.89 1.70 1.63 1.60 1.57
1.56 1.78 1.03 0.72 0.60 0.75 0.83 0.75 0.83 1.29 1.29 1.24 0.77 0.65 0.73 0.72 0.75 0.74 0.70 0.66 0.62 0.60 0.61 0.63 0.70 0.78 0.78 0.83 0.94 1.02 1.04 1.11 1.21 1.27 1.39 1.57 1.64 1.69 1.82 1.89 1.85 1.77 1.70 1.63
1.17 1.50 1.05 0.76 0.51 0.61 0.71 0.67 0.71 0.82 0.82 0.86 0.71 0.76 0.70 0.68 0.64 0.66 0.67 0.65 0.67 0.64 0.63 0.61 0.66 0.74 0.75 0.79 0.88 0.97 0.99 1.02 1.08 1.17 1.23 1.35 1.43 1.56 1.71 1.83 1.80 1.79 1.81 1.77
1.00 1.27 1.50 1.06 0.57 0.80 1.03 0.85 0.81 0.80 0.72 0.72 0.85 0.79 0.60 0.59 0.62 0.68 0.67 0.63 0.65 0.63 0.59 0.58 0.62 0.70 0.76 0.77 0.79 0.88 0.96 0.98 1.04 1.14 1.19 1.24 1.29 1.34 1.48 1.63 1.79 1.85 1.86 1.86
0.87 1.16 1.76 1.35 0.95 1.26 0.98 0.67 0.65 0.69 0.71 0.69 0.71 0.62 0.59 0.63 0.65 0.67 0.67 0.62 0.56 0.55 0.52 0.51 0.56 0.62 0.72 0.76 0.73 0.75 0.80 0.88 0.96 1.04 1.08 1.13 1.25 1.32 1.38 1.55 1.75 1.91 2.00 2.02
0.54 1.15 1.91 1.66 1.19 0.77 0.48 0.41 0.57 0.69 0.73 0.65 0.58 0.49 0.46 0.48 0.50 0.57 0.60 0.59 0.57 0.56 0.55 0.51 0.53 0.58 0.63 0.69 0.72 0.72 0.75 0.83 0.91 1.00 1.04 1.07 1.18 1.36 1.50 1.66 1.80 1.92 2.07 2.14
0.53 1.04 1.95 1.79 1.48 0.85 0.50 0.28 0.33 0.58 0.86 0.55 0.48 0.50 0.48 0.47 0.61 0.60 0.55 0.55 0.52 0.49 0.49 0.50 0.51 0.50 0.54 0.63 0.68 0.71 0.77 0.84 0.95 1.08 1.17 1.21 1.29 1.48 1.61 1.73 1.80 1.81 1.88 1.95
0.76 1.25 1.65 1.44 1.43 0.79 0.45 0.25 0.27 0.81 0.99 0.50 0.45 0.52 0.56 0.68 0.79 0.65 0.53 0.52 0.50 0.47 0.49 0.50 0.52 0.57 0.63 0.69 0.75 0.84 0.88 1.02 1.14 1.18 1.26 1.36 1.39 1.43 1.47 1.51 1.52 1.47 1.43 1.44
0.68 0.97 1.03 1.10 1.48 0.99 0.45 0.37 0.72 0.97 0.63 0.52 0.47 0.48 0.54 0.58 0.56 0.53 0.50 0.49 0.48 0.47 0.48 0.52 0.59 0.69 0.75 0.82 0.94 1.01 1.04 1.11 1.17 1.23 1.26 1.29 1.32 1.35 1.33 1.31 1.27 1.19 1.15 1.17
0.65 0.87 0.99 1.02 1.08 0.87 0.67 0.74 0.80 0.70 0.64 0.56 0.56 0.52 0.54 0.55 0.54 0.52 0.52 0.49 0.47 0.46 0.48 0.53 0.58 0.62 0.68 0.76 0.86 0.97 0.97 0.96 1.02 1.09 1.13 1.15 1.13 1.14 1.17 1.15 1.14 1.12 1.08 1.08
0.59 0.53 0.73 0.81 0.73 0.63 0.58 0.53 0.52 0.54 0.61 0.59 0.58 0.56 0.52 0.56 0.53 0.51 0.48 0.48 0.49 0.50 0.51 0.52 0.52 0.54 0.57 0.59 0.66 0.76 0.76 0.77 0.82 0.89 0.94 0.99 1.01 1.03 1.04 1.05 1.05 1.09 1.12 1.10
0.61 0.59 0.71 0.75 0.59 0.50 0.47 0.46 0.49 0.47 0.44 0.44 0.45 0.48 0.52 0.53 0.53 0.52 0.51 0.50 0.51 0.53 0.54 0.54 0.56 0.59 0.61 0.60 0.61 0.65 0.68 0.73 0.77 0.79 0.82 0.85 0.89 0.95 1.00 1.02 1.06 1.11 1.14 1.25
0.63 0.75 0.91 0.85 0.60 0.67 0.60 0.48 0.46 0.45 0.43 0.41 0.40 0.42 0.43 0.46 0.51 0.51 0.54 0.54 0.52 0.53 0.51 0.50 0.51 0.56 0.60 0.61 0.61 0.62 0.65 0.71 0.79 0.82 0.80 0.82 0.87 0.91 0.94 0.97 1.04 1.11 1.13 1.22